,,,PA_Meas_PMT16A,,PR_Meas_QMR101_102,,RH_Meas_QMH101,,SR_Meas_QMS101,,TA_Meas_QMH101,,GenWind,,GenWind,
date,time,status,PA,status,PR,status,RH,status,SR,status,TA,status,DirAvg,status,SpdAvg,
2008-12-24, 00:00:04,VALID,1008.12,VALID,0,VALID,95.1542,VALID,0,VALID,23.9668,VALID,98,VALID,0,
2008-12-24, 00:01:04,VALID,1008.1,VALID,0,VALID,95.1313,VALID,0,VALID,23.9863,VALID,98,VALID,0,
2008-12-24, 00:02:04,VALID,1008.08,VALID,0,VALID,95.1465,VALID,0,VALID,23.9863,VALID,98,VALID,0,
2008-12-24, 00:03:04,VALID,1008.08,VALID,0,VALID,95.1465,VALID,0,VALID,23.9863,VALID,98,VALID,0,
2008-12-24, 00:04:04,VALID,1008.04,VALID,0,VALID,95.1389,VALID,0,VALID,24.0058,VALID,98,VALID,0,
2008-12-24, 00:05:04,VALID,1008.03,VALID,0,VALID,95.1389,VALID,0,VALID,24.0076,VALID,98,VALID,0,
2008-12-24, 00:06:04,VALID,1008.01,VALID,0,VALID,95.1465,VALID,0,VALID,23.9473,VALID,98,VALID,0,
2008-12-24, 00:07:04,VALID,1008.01,VALID,0,VALID,95.1389,VALID,0,VALID,23.9668,VALID,98,VALID,0,
2008-12-24, 00:08:04,VALID,1008.03,VALID,0,VALID,95.1542,VALID,0,VALID,23.9473,VALID,98,VALID,0,
2008-12-24, 00:09:04,VALID,1008.03,VALID,0,VALID,95.1389,VALID,0,VALID,23.9881,VALID,98,VALID,0,
2008-12-24, 00:10:04,VALID,1008.03,VALID,0,VALID,95.1389,VALID,0,VALID,24.0058,VALID,98,VALID,0,
2008-12-24, 00:11:04,VALID,1008.04,VALID,0,VALID,95.1389,VALID,0,VALID,23.9863,VALID,98,VALID,0,
2008-12-24, 00:12:04,VALID,1008.03,VALID,0,VALID,95.1542,VALID,0,VALID,23.9863,VALID,98,VALID,0,
2008-12-24, 00:13:04,VALID,1008.04,VALID,0,VALID,95.1465,VALID,0,VALID,24.004,VALID,98,VALID,0,
2008-12-24, 00:14:04,VALID,1008.04,VALID,0,VALID,95.1542,VALID,0,VALID,23.9863,VALID,98,VALID,0,
2008-12-24, 00:15:04,VALID,1008.01,VALID,0,VALID,95.1465,VALID,0,VALID,23.9863,VALID,45,VALID,0,
2008-12-24, 00:16:04,VALID,1008.01,VALID,0,VALID,95.1542,VALID,0,VALID,23.9863,VALID,45,VALID,0,
2008-12-24, 00:17:04,VALID,1008.01,VALID,0,VALID,95.1694,VALID,0,VALID,23.9863,VALID,45,VALID,0,
2008-12-24, 00:18:04,VALID,1007.97,VALID,0,VALID,95.1542,VALID,0,VALID,23.9863,VALID,45,VALID,0,
2008-12-24, 00:19:04,VALID,1007.96,VALID,0,VALID,95.1542,VALID,0,VALID,23.9668,VALID,45,VALID,0,
2008-12-24, 00:20:04,VALID,1007.95,VALID,0,VALID,95.1465,VALID,0,VALID,23.9668,VALID,45,VALID,0,
2008-12-24, 00:21:04,VALID,1007.94,VALID,0,VALID,95.1618,VALID,0,VALID,23.9473,VALID,45,VALID,0,
2008-12-24, 00:22:04,VALID,1007.93,VALID,0,VALID,95.1694,VALID,0,VALID,23.9668,VALID,45,VALID,0,
2008-12-24, 00:23:04,VALID,1007.94,VALID,0,VALID,95.1618,VALID,0,VALID,23.9455,VALID,45,VALID,0,
2008-12-24, 00:24:04,VALID,1007.94,VALID,0,VALID,95.1465,VALID,0,VALID,23.9668,VALID,45,VALID,0,
2008-12-24, 00:25:04,VALID,1007.94,VALID,0,VALID,95.1465,VALID,0,VALID,23.9065,VALID,45,VALID,0,
2008-12-24, 00:26:04,VALID,1007.92,VALID,0,VALID,95.1542,VALID,0,VALID,23.9473,VALID,45,VALID,0,
2008-12-24, 00:27:04,VALID,1007.94,VALID,0,VALID,95.1694,VALID,0,VALID,23.9455,VALID,45,VALID,0,
2008-12-24, 00:28:04,VALID,1007.89,VALID,0,VALID,95.1542,VALID,0,VALID,23.926,VALID,45,VALID,0,
2008-12-24, 00:29:04,VALID,1007.89,VALID,0,VALID,95.1542,VALID,0,VALID,23.926,VALID,45,VALID,0,
2008-12-24, 00:30:04,VALID,1007.89,VALID,0,VALID,95.1465,VALID,0,VALID,23.926,VALID,45,VALID,0,
2008-12-24, 00:31:04,VALID,1007.88,VALID,0,VALID,95.1389,VALID,0,VALID,23.9065,VALID,45,VALID,0.298828,
2008-12-24, 00:32:04,VALID,1007.86,VALID,0,VALID,95.1694,VALID,0,VALID,23.9065,VALID,45,VALID,0.209766,
2008-12-24, 00:33:04,VALID,1007.85,VALID,0,VALID,95.1847,VALID,0,VALID,23.9065,VALID,45,VALID,0.1875,
2008-12-24, 00:34:04,VALID,1007.85,VALID,0,VALID,95.1542,VALID,0.105969,VALID,23.9065,VALID,45,VALID,0.279297,
2008-12-24, 00:35:04,VALID,1007.82,VALID,0,VALID,95.177,VALID,0.105969,VALID,23.9065,VALID,46,VALID,0.0996094,
2008-12-24, 00:36:04,VALID,1007.8,VALID,0,VALID,95.1923,VALID,0.105969,VALID,23.9065,VALID,45,VALID,0.272266,
2008-12-24, 00:37:04,VALID,1007.8,VALID,0,VALID,95.177,VALID,0.105969,VALID,23.9065,VALID,49,VALID,0,
2008-12-24, 00:38:04,VALID,1007.8,VALID,0,VALID,95.1694,VALID,0,VALID,23.9065,VALID,70,VALID,0.447266,
2008-12-24, 00:39:04,VALID,1007.77,VALID,0,VALID,95.1694,VALID,0,VALID,23.9065,VALID,70,VALID,0.497656,
2008-12-24, 00:40:04,VALID,1007.77,VALID,0,VALID,95.1847,VALID,0,VALID,23.8871,VALID,80,VALID,0.705469,
2008-12-24, 00:41:04,VALID,1007.77,VALID,0,VALID,95.1923,VALID,0.105969,VALID,23.8676,VALID,80,VALID,0.557422,
2008-12-24, 00:42:04,VALID,1007.76,VALID,0,VALID,95.1999,VALID,0,VALID,23.8871,VALID,79,VALID,0.283203,
2008-12-24, 00:43:04,VALID,1007.77,VALID,0,VALID,95.1923,VALID,0.105969,VALID,23.8871,VALID,59,VALID,0.486328,
2008-12-24, 00:44:04,VALID,1007.76,VALID,0,VALID,95.1999,VALID,0,VALID,23.926,VALID,82,VALID,0.560156,
2008-12-24, 00:45:04,VALID,1007.78,VALID,0,VALID,95.2075,VALID,0,VALID,23.8871,VALID,91,VALID,0.863672,
2008-12-24, 00:46:04,VALID,1007.76,VALID,0,VALID,95.2075,VALID,0.105969,VALID,23.926,VALID,80,VALID,0.433594,
2008-12-24, 00:47:04,VALID,1007.72,VALID,0,VALID,95.2075,VALID,0,VALID,23.8871,VALID,62,VALID,0.592578,
2008-12-24, 00:48:04,VALID,1007.71,VALID,0,VALID,95.1923,VALID,0.105969,VALID,23.9065,VALID,60,VALID,0.532031,
2008-12-24, 00:49:04,VALID,1007.7,VALID,0,VALID,95.1999,VALID,0.105969,VALID,23.9065,VALID,73,VALID,0.759375,
2008-12-24, 00:50:04,VALID,1007.68,VALID,0,VALID,95.1999,VALID,0,VALID,23.8871,VALID,65,VALID,0.874609,
2008-12-24, 00:51:04,VALID,1007.69,VALID,0,VALID,95.2075,VALID,0,VALID,23.8676,VALID,60,VALID,0.58125,
2008-12-24, 00:52:04,VALID,1007.65,VALID,0,VALID,95.2075,VALID,0,VALID,23.8871,VALID,62,VALID,0.520312,
2008-12-24, 00:53:04,VALID,1007.64,VALID,0,VALID,95.2075,VALID,0,VALID,23.8676,VALID,67,VALID,0.421875,
2008-12-24, 00:54:04,VALID,1007.61,VALID,0,VALID,95.2228,VALID,0.105969,VALID,23.8676,VALID,62,VALID,0.0921875,
2008-12-24, 00:55:04,VALID,1007.61,VALID,0,VALID,95.2152,VALID,0,VALID,23.8676,VALID,62,VALID,0.0175781,
2008-12-24, 00:56:04,VALID,1007.57,VALID,0,VALID,95.2228,VALID,0,VALID,23.8481,VALID,68,VALID,0.430859,
2008-12-24, 00:57:04,VALID,1007.54,VALID,0,VALID,95.2152,VALID,0,VALID,23.8871,VALID,60,VALID,0.25625,
2008-12-24, 00:58:04,VALID,1007.53,VALID,0,VALID,95.2228,VALID,0,VALID,23.8676,VALID,77,VALID,0.555859,
2008-12-24, 00:59:04,VALID,1007.5,VALID,0,VALID,95.2304,VALID,0,VALID,23.8676,VALID,74,VALID,0.730859,
2008-12-24, 01:00:04,VALID,1007.46,VALID,0,VALID,95.2152,VALID,0,VALID,23.8889,VALID,52,VALID,0.555859,
2008-12-24, 01:01:04,VALID,1007.45,VALID,0,VALID,95.2304,VALID,0,VALID,23.8286,VALID,31,VALID,0.471484,
2008-12-24, 01:02:04,VALID,1007.42,VALID,0,VALID,95.2228,VALID,0,VALID,23.8481,VALID,35,VALID,0.614453,
2008-12-24, 01:03:04,VALID,1007.37,VALID,0,VALID,95.2075,VALID,0,VALID,23.8091,VALID,75,VALID,1.13594,
2008-12-24, 01:04:04,VALID,1007.35,VALID,0,VALID,95.2075,VALID,0,VALID,23.8304,VALID,66,VALID,0.317578,
2008-12-24, 01:05:04,VALID,1007.33,VALID,0,VALID,95.2075,VALID,0,VALID,23.8091,VALID,49,VALID,0.743359,
2008-12-24, 01:06:04,VALID,1007.3,VALID,0,VALID,95.2075,VALID,0.105969,VALID,23.7896,VALID,50,VALID,0.423828,
2008-12-24, 01:07:04,VALID,1007.29,VALID,0,VALID,95.2152,VALID,0,VALID,23.8091,VALID,105,VALID,0.524609,
2008-12-24, 01:08:04,VALID,1007.23,VALID,0,VALID,95.2304,VALID,0,VALID,23.7896,VALID,73,VALID,0.185547,
2008-12-24, 01:09:04,VALID,1007.19,VALID,0,VALID,95.2228,VALID,0,VALID,23.8091,VALID,53,VALID,0.549609,
2008-12-24, 01:10:04,VALID,1007.15,VALID,0,VALID,95.238,VALID,0,VALID,23.7701,VALID,62,VALID,0.616797,
2008-12-24, 01:11:04,VALID,1007.11,VALID,0,VALID,95.2228,VALID,0,VALID,23.8091,VALID,70,VALID,1.00625,
2008-12-24, 01:12:04,VALID,1007.09,VALID,0,VALID,95.2304,VALID,0.105969,VALID,23.7701,VALID,67,VALID,0.789063,
2008-12-24, 01:13:04,VALID,1007.06,VALID,0,VALID,95.238,VALID,0.105969,VALID,23.7701,VALID,69,VALID,0.439453,
2008-12-24, 01:14:04,VALID,1007.02,VALID,0,VALID,95.238,VALID,0.105969,VALID,23.7896,VALID,58,VALID,0.791406,
2008-12-24, 01:15:04,VALID,1007.01,VALID,0,VALID,95.2228,VALID,0.105969,VALID,23.7507,VALID,79,VALID,0.988281,
2008-12-24, 01:16:04,VALID,1006.98,VALID,0,VALID,95.238,VALID,0.105969,VALID,23.772,VALID,59,VALID,0.813281,
2008-12-24, 01:17:04,VALID,1006.96,VALID,0,VALID,95.238,VALID,0.105969,VALID,23.7507,VALID,90,VALID,0.886328,
2008-12-24, 01:18:04,VALID,1006.92,VALID,0,VALID,95.2457,VALID,0.105969,VALID,23.7507,VALID,93,VALID,0.495703,
2008-12-24, 01:19:04,VALID,1006.9,VALID,0,VALID,95.2457,VALID,0.105969,VALID,23.7507,VALID,79,VALID,0.575781,
2008-12-24, 01:20:04,VALID,1006.88,VALID,0,VALID,95.2457,VALID,0,VALID,23.7507,VALID,99,VALID,0.935938,
2008-12-24, 01:21:04,VALID,1006.88,VALID,0,VALID,95.2457,VALID,0.105969,VALID,23.7312,VALID,90,VALID,0.8125,
2008-12-24, 01:22:04,VALID,1006.84,VALID,0,VALID,95.2533,VALID,0,VALID,23.7312,VALID,83,VALID,0.988672,
2008-12-24, 01:23:04,VALID,1006.84,VALID,0,VALID,95.2685,VALID,0,VALID,23.7117,VALID,98,VALID,0.682422,
2008-12-24, 01:24:04,VALID,1006.79,VALID,0,VALID,95.2457,VALID,0.105969,VALID,23.7117,VALID,94,VALID,0.608203,
2008-12-24, 01:25:04,VALID,1006.81,VALID,0,VALID,95.2685,VALID,0,VALID,23.7348,VALID,93,VALID,0.451562,
2008-12-24, 01:26:04,VALID,1006.81,VALID,0,VALID,95.2762,VALID,0,VALID,23.7153,VALID,99,VALID,0.862109,
2008-12-24, 01:27:04,VALID,1006.78,VALID,0,VALID,95.2762,VALID,0,VALID,23.694,VALID,99,VALID,0.417188,
2008-12-24, 01:28:04,VALID,1006.79,VALID,0,VALID,95.2685,VALID,0,VALID,23.694,VALID,86,VALID,0.720312,
2008-12-24, 01:29:04,VALID,1006.8,VALID,0,VALID,95.2685,VALID,0,VALID,23.6745,VALID,93,VALID,1.05352,
2008-12-24, 01:30:04,VALID,1006.79,VALID,0,VALID,95.2685,VALID,0,VALID,23.6958,VALID,96,VALID,0.978125,
2008-12-24, 01:31:04,VALID,1006.78,VALID,0,VALID,95.2457,VALID,0,VALID,23.6745,VALID,114,VALID,0.996875,
2008-12-24, 01:32:04,VALID,1006.82,VALID,0,VALID,95.2457,VALID,0,VALID,23.694,VALID,88,VALID,0.666016,
2008-12-24, 01:33:04,VALID,1006.82,VALID,0,VALID,95.2533,VALID,0,VALID,23.6745,VALID,102,VALID,0.727734,
2008-12-24, 01:34:04,VALID,1006.8,VALID,0,VALID,95.2304,VALID,0,VALID,23.7135,VALID,122,VALID,0.826563,
2008-12-24, 01:35:04,VALID,1006.82,VALID,0,VALID,95.238,VALID,0,VALID,23.7348,VALID,111,VALID,0.651953,
2008-12-24, 01:36:04,VALID,1006.81,VALID,0,VALID,95.2152,VALID,0,VALID,23.7135,VALID,120,VALID,0.739844,
2008-12-24, 01:37:04,VALID,1006.82,VALID,0,VALID,95.2152,VALID,0,VALID,23.7135,VALID,107,VALID,0.696875,
2008-12-24, 01:38:04,VALID,1006.8,VALID,0,VALID,95.2152,VALID,0,VALID,23.7135,VALID,107,VALID,0.628516,
2008-12-24, 01:39:04,VALID,1006.79,VALID,0,VALID,95.2152,VALID,0,VALID,23.7135,VALID,107,VALID,0.142578,
2008-12-24, 01:40:04,VALID,1006.77,VALID,0,VALID,95.1999,VALID,0.105969,VALID,23.7312,VALID,119,VALID,0.446875,
2008-12-24, 01:41:04,VALID,1006.78,VALID,0,VALID,95.1847,VALID,0.105969,VALID,23.7117,VALID,115,VALID,0.177344,
2008-12-24, 01:42:04,VALID,1006.77,VALID,0,VALID,95.1542,VALID,0.105969,VALID,23.7117,VALID,103,VALID,0.521484,
2008-12-24, 01:43:04,VALID,1006.75,VALID,0,VALID,95.1465,VALID,0,VALID,23.6727,VALID,103,VALID,0.467578,
2008-12-24, 01:44:04,VALID,1006.8,VALID,0,VALID,95.1465,VALID,0,VALID,23.7117,VALID,103,VALID,0.339453,
2008-12-24, 01:45:04,VALID,1006.78,VALID,0,VALID,95.1389,VALID,0.105969,VALID,23.7117,VALID,101,VALID,0.156641,
2008-12-24, 01:46:04,VALID,1006.81,VALID,0,VALID,95.1236,VALID,0,VALID,23.7117,VALID,60,VALID,0.373437,
2008-12-24, 01:47:04,VALID,1006.81,VALID,0,VALID,95.116,VALID,0.105969,VALID,23.7135,VALID,79,VALID,0.779688,
2008-12-24, 01:48:04,VALID,1006.83,VALID,0,VALID,95.1236,VALID,0.105969,VALID,23.7312,VALID,71,VALID,0.650781,
2008-12-24, 01:49:04,VALID,1006.84,VALID,0,VALID,95.116,VALID,0.105969,VALID,23.6922,VALID,77,VALID,0.488672,
2008-12-24, 01:50:04,VALID,1006.84,VALID,0,VALID,95.1008,VALID,0,VALID,23.6727,VALID,65,VALID,0.526953,
2008-12-24, 01:51:04,VALID,1006.86,VALID,0,VALID,95.0855,VALID,0.105969,VALID,23.6922,VALID,49,VALID,0.169531,
2008-12-24, 01:52:04,VALID,1006.88,VALID,0,VALID,95.0779,VALID,0,VALID,23.6727,VALID,49,VALID,0,
2008-12-24, 01:53:04,VALID,1006.87,VALID,0,VALID,95.0703,VALID,0,VALID,23.6922,VALID,21,VALID,0,
2008-12-24, 01:54:04,VALID,1006.88,VALID,0,VALID,95.0626,VALID,0,VALID,23.6727,VALID,9,VALID,0,
2008-12-24, 01:55:04,VALID,1006.88,VALID,0,VALID,95.055,VALID,0,VALID,23.6958,VALID,9,VALID,0,
2008-12-24, 01:56:04,VALID,1006.86,VALID,0,VALID,95.0474,VALID,0,VALID,23.655,VALID,9,VALID,0,
2008-12-24, 01:57:04,VALID,1006.85,VALID,0,VALID,95.0321,VALID,0,VALID,23.655,VALID,9,VALID,0,
2008-12-24, 01:58:04,VALID,1006.86,VALID,0,VALID,95.0398,VALID,0,VALID,23.694,VALID,9,VALID,0,
2008-12-24, 01:59:04,VALID,1006.84,VALID,0,VALID,95.055,VALID,0,VALID,23.655,VALID,19,VALID,0,
2008-12-24, 02:00:04,VALID,1006.84,VALID,0,VALID,95.0626,VALID,0,VALID,23.655,VALID,19,VALID,0,
2008-12-24, 02:01:04,VALID,1006.85,VALID,0,VALID,95.0321,VALID,0,VALID,23.655,VALID,19,VALID,0,
2008-12-24, 02:02:04,VALID,1006.84,VALID,0,VALID,95.0245,VALID,0,VALID,23.6745,VALID,19,VALID,0,
2008-12-24, 02:03:04,VALID,1006.88,VALID,0,VALID,95.0398,VALID,0,VALID,23.6356,VALID,19,VALID,0,
2008-12-24, 02:04:04,VALID,1006.88,VALID,0,VALID,95.0474,VALID,0,VALID,23.6373,VALID,19,VALID,0,
2008-12-24, 02:05:04,VALID,1006.89,VALID,0,VALID,95.0474,VALID,0,VALID,23.6161,VALID,19,VALID,0,
2008-12-24, 02:06:04,VALID,1006.92,VALID,0,VALID,95.0474,VALID,0,VALID,23.6161,VALID,19,VALID,0,
2008-12-24, 02:07:04,VALID,1006.92,VALID,0,VALID,95.0474,VALID,0,VALID,23.5966,VALID,19,VALID,0,
2008-12-24, 02:08:04,VALID,1006.91,VALID,0,VALID,95.0626,VALID,0,VALID,23.5966,VALID,19,VALID,0,
2008-12-24, 02:09:04,VALID,1006.92,VALID,0,VALID,95.0626,VALID,0,VALID,23.6161,VALID,19,VALID,0,
2008-12-24, 02:10:04,VALID,1006.93,VALID,0,VALID,95.0703,VALID,0.105969,VALID,23.5753,VALID,19,VALID,0,
2008-12-24, 02:11:04,VALID,1006.94,VALID,0,VALID,95.0779,VALID,0,VALID,23.5948,VALID,18,VALID,0,
2008-12-24, 02:12:04,VALID,1006.9,VALID,0,VALID,95.0855,VALID,0,VALID,23.5966,VALID,18,VALID,0,
2008-12-24, 02:13:04,VALID,1006.88,VALID,0,VALID,95.0855,VALID,0,VALID,23.5948,VALID,18,VALID,0,
2008-12-24, 02:14:04,VALID,1006.87,VALID,0,VALID,95.0855,VALID,0.105969,VALID,23.5948,VALID,18,VALID,0,
2008-12-24, 02:15:04,VALID,1006.89,VALID,0,VALID,95.1084,VALID,0.105969,VALID,23.554,VALID,18,VALID,0,
2008-12-24, 02:16:04,VALID,1006.83,VALID,0,VALID,95.1084,VALID,0,VALID,23.5948,VALID,18,VALID,0,
2008-12-24, 02:17:04,VALID,1006.86,VALID,0,VALID,95.1084,VALID,0.105969,VALID,23.5753,VALID,3,VALID,0,
2008-12-24, 02:18:04,VALID,1006.84,VALID,0,VALID,95.1313,VALID,0.105969,VALID,23.5753,VALID,336,VALID,0,
2008-12-24, 02:19:04,VALID,1006.83,VALID,0,VALID,95.1008,VALID,0.105969,VALID,23.5753,VALID,336,VALID,0,
2008-12-24, 02:20:04,VALID,1006.8,VALID,0,VALID,95.1236,VALID,0.105969,VALID,23.5753,VALID,313,VALID,0,
2008-12-24, 02:21:04,VALID,1006.84,VALID,0,VALID,95.116,VALID,0.105969,VALID,23.5966,VALID,308,VALID,0,
2008-12-24, 02:22:04,VALID,1006.84,VALID,0,VALID,95.1465,VALID,0,VALID,23.5753,VALID,308,VALID,0,
2008-12-24, 02:23:04,VALID,1006.84,VALID,0,VALID,95.1542,VALID,0.105969,VALID,23.5558,VALID,308,VALID,0,
2008-12-24, 02:24:04,VALID,1006.81,VALID,0,VALID,95.1389,VALID,0,VALID,23.5558,VALID,308,VALID,0,
2008-12-24, 02:25:04,VALID,1006.81,VALID,0,VALID,95.1465,VALID,0.105969,VALID,23.5558,VALID,308,VALID,0,
2008-12-24, 02:26:04,VALID,1006.8,VALID,0,VALID,95.1465,VALID,0.105969,VALID,23.5558,VALID,309,VALID,0,
2008-12-24, 02:27:04,VALID,1006.8,VALID,0,VALID,95.1313,VALID,0.105969,VALID,23.5363,VALID,309,VALID,0,
2008-12-24, 02:28:04,VALID,1006.78,VALID,0,VALID,95.1618,VALID,0,VALID,23.5558,VALID,309,VALID,0,
2008-12-24, 02:29:04,VALID,1006.76,VALID,0,VALID,95.1618,VALID,0,VALID,23.5753,VALID,309,VALID,0,
2008-12-24, 02:30:04,VALID,1006.74,VALID,0,VALID,95.1694,VALID,0,VALID,23.5363,VALID,309,VALID,0,
2008-12-24, 02:31:04,VALID,1006.74,VALID,0,VALID,95.1542,VALID,0.105969,VALID,23.5363,VALID,311,VALID,0,
2008-12-24, 02:32:04,VALID,1006.71,VALID,0,VALID,95.1694,VALID,0.105969,VALID,23.5363,VALID,311,VALID,0,
2008-12-24, 02:33:04,VALID,1006.7,VALID,0,VALID,95.1542,VALID,0.105969,VALID,23.4956,VALID,311,VALID,0,
2008-12-24, 02:34:04,VALID,1006.7,VALID,0,VALID,95.1847,VALID,0.105969,VALID,23.5151,VALID,311,VALID,0,
2008-12-24, 02:35:04,VALID,1006.69,VALID,0,VALID,95.177,VALID,0.105969,VALID,23.5363,VALID,311,VALID,0,
2008-12-24, 02:36:04,VALID,1006.67,VALID,0,VALID,95.1847,VALID,0.105969,VALID,23.5363,VALID,311,VALID,0,
2008-12-24, 02:37:04,VALID,1006.65,VALID,0,VALID,95.1999,VALID,0.105969,VALID,23.5169,VALID,311,VALID,0,
2008-12-24, 02:38:04,VALID,1006.64,VALID,0,VALID,95.1923,VALID,0.105969,VALID,23.5169,VALID,311,VALID,0,
2008-12-24, 02:39:04,VALID,1006.61,VALID,0,VALID,95.177,VALID,0.105969,VALID,23.4974,VALID,25,VALID,0,
2008-12-24, 02:40:04,VALID,1006.59,VALID,0,VALID,95.177,VALID,0.105969,VALID,23.4761,VALID,25,VALID,0,
2008-12-24, 02:41:04,VALID,1006.58,VALID,0,VALID,95.2075,VALID,0.105969,VALID,23.4956,VALID,25,VALID,0,
2008-12-24, 02:42:04,VALID,1006.6,VALID,0,VALID,95.1999,VALID,0.105969,VALID,23.4974,VALID,25,VALID,0,
2008-12-24, 02:43:04,VALID,1006.59,VALID,0,VALID,95.2228,VALID,0.105969,VALID,23.4974,VALID,25,VALID,0,
2008-12-24, 02:44:04,VALID,1006.57,VALID,0,VALID,95.2152,VALID,0.105969,VALID,23.4974,VALID,25,VALID,0,
2008-12-24, 02:45:04,VALID,1006.56,VALID,0,VALID,95.2304,VALID,0.105969,VALID,23.4974,VALID,25,VALID,0,
2008-12-24, 02:46:04,VALID,1006.56,VALID,0,VALID,95.2228,VALID,0.105969,VALID,23.4992,VALID,25,VALID,0,
2008-12-24, 02:47:04,VALID,1006.58,VALID,0,VALID,95.238,VALID,0.105969,VALID,23.4974,VALID,25,VALID,0,
2008-12-24, 02:48:04,VALID,1006.56,VALID,0,VALID,95.2457,VALID,0.105969,VALID,23.4779,VALID,25,VALID,0,
2008-12-24, 02:49:04,VALID,1006.56,VALID,0,VALID,95.238,VALID,0.105969,VALID,23.4779,VALID,25,VALID,0,
2008-12-24, 02:50:04,VALID,1006.57,VALID,0,VALID,95.2457,VALID,0.105969,VALID,23.4779,VALID,25,VALID,0,
2008-12-24, 02:51:04,VALID,1006.56,VALID,0,VALID,95.2457,VALID,0.105969,VALID,23.4974,VALID,25,VALID,0,
2008-12-24, 02:52:04,VALID,1006.56,VALID,0,VALID,95.2457,VALID,0.105969,VALID,23.4761,VALID,25,VALID,0,
2008-12-24, 02:53:04,VALID,1006.54,VALID,0,VALID,95.238,VALID,0,VALID,23.4584,VALID,25,VALID,0,
2008-12-24, 02:54:04,VALID,1006.51,VALID,0,VALID,95.2533,VALID,0.105969,VALID,23.4779,VALID,25,VALID,0,
2008-12-24, 02:55:04,VALID,1006.53,VALID,0,VALID,95.238,VALID,0,VALID,23.4602,VALID,25,VALID,0,
2008-12-24, 02:56:04,VALID,1006.52,VALID,0,VALID,95.2533,VALID,0,VALID,23.4602,VALID,25,VALID,0,
2008-12-24, 02:57:04,VALID,1006.51,VALID,0,VALID,95.2457,VALID,0,VALID,23.4407,VALID,25,VALID,0,
2008-12-24, 02:58:04,VALID,1006.52,VALID,0,VALID,95.2609,VALID,0,VALID,23.4407,VALID,25,VALID,0,
2008-12-24, 02:59:04,VALID,1006.51,VALID,0,VALID,95.2457,VALID,0,VALID,23.4407,VALID,25,VALID,0,
2008-12-24, 03:00:04,VALID,1006.49,VALID,0,VALID,95.2609,VALID,0,VALID,23.4407,VALID,25,VALID,0,
2008-12-24, 03:01:04,VALID,1006.48,VALID,0,VALID,95.2609,VALID,0,VALID,23.4407,VALID,25,VALID,0,
2008-12-24, 03:02:04,VALID,1006.46,VALID,0,VALID,95.2533,VALID,0,VALID,23.4602,VALID,25,VALID,0,
2008-12-24, 03:03:04,VALID,1006.43,VALID,0,VALID,95.238,VALID,0,VALID,23.4407,VALID,25,VALID,0,
2008-12-24, 03:04:04,VALID,1006.4,VALID,0,VALID,95.2685,VALID,0,VALID,23.4407,VALID,31,VALID,0,
2008-12-24, 03:05:04,VALID,1006.41,VALID,0,VALID,95.2685,VALID,0,VALID,23.4407,VALID,31,VALID,0,
2008-12-24, 03:06:04,VALID,1006.37,VALID,0,VALID,95.2533,VALID,0,VALID,23.4407,VALID,31,VALID,0,
2008-12-24, 03:07:04,VALID,1006.37,VALID,0,VALID,95.2533,VALID,0,VALID,23.4407,VALID,31,VALID,0,
2008-12-24, 03:08:04,VALID,1006.35,VALID,0,VALID,95.2533,VALID,0,VALID,23.4407,VALID,31,VALID,0,
2008-12-24, 03:09:04,VALID,1006.32,VALID,0,VALID,95.2762,VALID,0,VALID,23.4407,VALID,31,VALID,0,
2008-12-24, 03:10:04,VALID,1006.34,VALID,0,VALID,95.2685,VALID,0,VALID,23.4407,VALID,31,VALID,0,
2008-12-24, 03:11:04,VALID,1006.33,VALID,0,VALID,95.2609,VALID,0,VALID,23.4602,VALID,31,VALID,0,
2008-12-24, 03:12:04,VALID,1006.32,VALID,0,VALID,95.2609,VALID,0,VALID,23.4407,VALID,33,VALID,0,
2008-12-24, 03:13:04,VALID,1006.29,VALID,0,VALID,95.2685,VALID,0,VALID,23.4602,VALID,76,VALID,0,
2008-12-24, 03:14:04,VALID,1006.3,VALID,0,VALID,95.2685,VALID,0,VALID,23.4407,VALID,76,VALID,0,
2008-12-24, 03:15:04,VALID,1006.27,VALID,0,VALID,95.2685,VALID,0,VALID,23.462,VALID,76,VALID,0,
2008-12-24, 03:16:04,VALID,1006.29,VALID,0,VALID,95.2685,VALID,0,VALID,23.4425,VALID,76,VALID,0,
2008-12-24, 03:17:04,VALID,1006.27,VALID,0,VALID,95.2838,VALID,0,VALID,23.4212,VALID,76,VALID,0,
2008-12-24, 03:18:04,VALID,1006.23,VALID,0,VALID,95.2838,VALID,0,VALID,23.4407,VALID,76,VALID,0,
2008-12-24, 03:19:04,VALID,1006.22,VALID,0,VALID,95.2762,VALID,0,VALID,23.4602,VALID,76,VALID,0,
2008-12-24, 03:20:04,VALID,1006.21,VALID,0,VALID,95.2838,VALID,0,VALID,23.4602,VALID,76,VALID,0,
2008-12-24, 03:21:04,VALID,1006.16,VALID,0,VALID,95.2685,VALID,0,VALID,23.4602,VALID,76,VALID,0,
2008-12-24, 03:22:04,VALID,1006.18,VALID,0,VALID,95.2762,VALID,0,VALID,23.4602,VALID,76,VALID,0,
2008-12-24, 03:23:04,VALID,1006.18,VALID,0,VALID,95.2685,VALID,0,VALID,23.462,VALID,76,VALID,0,
2008-12-24, 03:24:04,VALID,1006.17,VALID,0,VALID,95.2914,VALID,0,VALID,23.4407,VALID,76,VALID,0,
2008-12-24, 03:25:04,VALID,1006.15,VALID,0,VALID,95.2533,VALID,0.105969,VALID,23.4194,VALID,85,VALID,0,
2008-12-24, 03:26:04,VALID,1006.14,VALID,0,VALID,95.2533,VALID,0.105969,VALID,23.4194,VALID,128,VALID,0,
2008-12-24, 03:27:04,VALID,1006.13,VALID,0,VALID,95.2838,VALID,0.105969,VALID,23.4194,VALID,130,VALID,0.593359,
2008-12-24, 03:28:04,VALID,1006.12,VALID,0,VALID,95.2762,VALID,0.105969,VALID,23.3805,VALID,130,VALID,0.547656,
2008-12-24, 03:29:04,VALID,1006.1,VALID,0,VALID,95.2762,VALID,0.105969,VALID,23.3805,VALID,130,VALID,0.520703,
2008-12-24, 03:30:04,VALID,1006.09,VALID,0,VALID,95.2685,VALID,0.105969,VALID,23.4,VALID,130,VALID,0.479297,
2008-12-24, 03:31:04,VALID,1006.09,VALID,0,VALID,95.2609,VALID,0,VALID,23.4017,VALID,130,VALID,0.413281,
2008-12-24, 03:32:04,VALID,1006.09,VALID,0,VALID,95.2762,VALID,0.105969,VALID,23.3805,VALID,130,VALID,0.313672,
2008-12-24, 03:33:04,VALID,1006.1,VALID,0,VALID,95.2762,VALID,0,VALID,23.4,VALID,130,VALID,0.540625,
2008-12-24, 03:34:04,VALID,1006.12,VALID,0,VALID,95.2762,VALID,0.105969,VALID,23.4017,VALID,127,VALID,0.458594,
2008-12-24, 03:35:04,VALID,1006.11,VALID,0,VALID,95.2838,VALID,0.105969,VALID,23.4,VALID,127,VALID,0.214844,
2008-12-24, 03:36:04,VALID,1006.11,VALID,0,VALID,95.2838,VALID,0,VALID,23.3823,VALID,127,VALID,0.0769531,
2008-12-24, 03:37:04,VALID,1006.1,VALID,0,VALID,95.2762,VALID,0.105969,VALID,23.361,VALID,127,VALID,0,
2008-12-24, 03:38:04,VALID,1006.08,VALID,0,VALID,95.2685,VALID,0.105969,VALID,23.4017,VALID,127,VALID,0,
2008-12-24, 03:39:04,VALID,1006.09,VALID,0,VALID,95.2914,VALID,0.105969,VALID,23.361,VALID,127,VALID,0,
2008-12-24, 03:40:04,VALID,1006.08,VALID,0,VALID,95.2762,VALID,0,VALID,23.3823,VALID,127,VALID,0,
2008-12-24, 03:41:04,VALID,1006.09,VALID,0,VALID,95.2762,VALID,0,VALID,23.3628,VALID,127,VALID,0,
2008-12-24, 03:42:04,VALID,1006.11,VALID,0,VALID,95.2685,VALID,0,VALID,23.3628,VALID,127,VALID,0,
2008-12-24, 03:43:04,VALID,1006.08,VALID,0,VALID,95.2685,VALID,0,VALID,23.3823,VALID,127,VALID,0,
2008-12-24, 03:44:04,VALID,1006.1,VALID,0,VALID,95.2685,VALID,0,VALID,23.3433,VALID,127,VALID,0,
2008-12-24, 03:45:04,VALID,1006.13,VALID,0,VALID,95.2914,VALID,0,VALID,23.3645,VALID,127,VALID,0,
2008-12-24, 03:46:04,VALID,1006.12,VALID,0,VALID,95.2838,VALID,0,VALID,23.3238,VALID,102,VALID,0,
2008-12-24, 03:47:04,VALID,1006.15,VALID,0,VALID,95.299,VALID,0,VALID,23.3451,VALID,86,VALID,0,
2008-12-24, 03:48:04,VALID,1006.13,VALID,0,VALID,95.2762,VALID,0,VALID,23.3238,VALID,86,VALID,0,
2008-12-24, 03:49:04,VALID,1006.13,VALID,0,VALID,95.3067,VALID,0,VALID,23.3043,VALID,86,VALID,0,
2008-12-24, 03:50:04,VALID,1006.14,VALID,0,VALID,95.3067,VALID,0,VALID,23.3238,VALID,86,VALID,0,